Find Starlink 34154

NORAD ID: 63995 Int'l Des: 2025-101 Owner: SPXS Country: US Constellation: starlink operational
LEOCIRCULAR

Current View

Loading 3D Globe...

About Starlink 34154

Description loading...

Upcoming Passes

Passes for default location (London). Set your location on the main map for personalized predictions.

Altitude History

Loading altitude history...

Two-Line Element Set

1 63995U 25101B 26146.09277628 .00003380 00000-0 13236-3 0 9993
2 63995 43.0023 280.7845 0000822 43.3701 316.7215 15.27558896 58891
Epoch: May 26, 2026 • Age: 17 hours

Current Status

Altitude 485.5 km
Velocity 7.62 km/s
Sub-Earth Point -11.37°S, 56.72°W
Launch Date May 14, 2025
Age 1 years
Type internet

Technical Details

Classification Payload
Mass 575.00 kg
Dry Mass 530.00 kg
Total Mass 575.00 kg
Length 0.30 m
Diameter 4.10 m
Span 29.00 m
Shape Box + pan
Manufacturer SPXS
Bus Type Starlink V2MO
Phase Status In Orbit
Owner/State SPXS/US

Most Searched